Weather History for KAMA - September, 2012

Change the Weather History Date:

Monday, September 17, 2012

  Actual Average Record
Temperature  
Mean Temperature 64 °F 69 °F  
Max Temperature 77 °F 82 °F 97 °F (2004)
Min Temperature 50 °F 56 °F 40 °F (1965)
Degree Days  
Heating Degree Days 1 1  
Month to date heating degree days 25 8  
Since 1 July heating degree days 25 9  
Cooling Degree Days 0 5  
Month to date cooling degree days 151 129  
Year to date cooling degree days 1904 1321  
Growing Degree Days 14 (Base 50)    
Moisture  
Dew Point 46 °F    
Average Humidity 62    
Maximum Humidity 93    
Minimum Humidity 31    
Precipitation  
Precipitation T in 0.07 in 1.36 in (1919)
Month to date precipitation 1.25 1.13  
Year to date precipitation 9.77 16.40  
Snow  
Snow 0.00 in 0.00 in 0.00 in ()
Month to date snowfall T 0.0  
Since 1 July snowfall T 0.0  
Since 1 September snowfall T 0.0  
Snow Depth 0.00 in    
Sea Level Pressure  
Sea Level Pressure 29.91 in    
Wind  
Wind Speed 13 mph (NNE)    
Max Wind Speed 24 mph    
Max Gust Speed 30 mph    
Visibility 10 miles    
Events      
T = Trace of Precipitation, MM = Missing Value Source: NWS Daily Summary

Daily Weather History Graph

Daily Weather History Graph

Search for Another Location

Airport or City:

Trip Planner

Search our weather history database for the weather conditions in past years. The results will help you decide how hot, cold, wet, or windy it might be!

Date:

Astronomy

Sep. 17, 2012 Rise Set
Actual Time 7:31 AM CDT 7:50 PM CDT
Civil Twilight 7:06 AM CDT 8:15 PM CDT
Nautical Twilight 6:36 AM CDT 8:45 PM CDT
Astronomical Twilight 6:06 AM CDT 9:15 PM CDT
Moon 9:16 AM CDT (9/17) 8:41 PM CDT (9/17)
Length of Visible Light 13h 09m
Length of Day
12h 18m
Waxing Crescent, 3% of the Moon is Illuminated
Sep 17
Waxing Crescent
Sep 22
First Quarter
Sep 29
Full
Oct 8
Last Quarter
Oct 15
New

Hourly Weather History & Observations

Time (CDT) Temp. Dew Point Humidity Pressure Visibility Wind Dir Wind Speed Gust Speed Precip Events Conditions
12:53 AM 60.1 °F 51.1 °F 72% 29.88 in 10.0 mi SSE 9.2 mph - N/A   Clear
1:53 AM 57.0 °F 48.9 °F 74% 29.87 in 10.0 mi South 10.4 mph - N/A   Clear
2:53 AM 55.0 °F 51.1 °F 86% 29.86 in 10.0 mi South 10.4 mph - N/A   Clear
3:53 AM 54.0 °F 51.1 °F 90% 29.84 in 10.0 mi South 11.5 mph - N/A   Clear
4:53 AM 53.1 °F 48.0 °F 83% 29.83 in 10.0 mi SSW 8.1 mph - N/A   Clear
5:53 AM 51.1 °F 46.9 °F 86% 29.84 in 10.0 mi SSE 3.5 mph - N/A   Clear
6:53 AM 50.0 °F 46.4 °F 87% 29.96 in 10.0 mi South 5.8 mph - N/A   Clear
7:53 AM 51.1 °F 46.0 °F 83% 29.86 in 10.0 mi South 4.6 mph - N/A   Clear
8:53 AM 55.4 °F 48.2 °F 77% 29.96 in 10.0 mi SSW 4.6 mph - N/A   Clear
9:53 AM 64.9 °F 46.9 °F 52% 29.89 in 10.0 mi NW 10.4 mph - N/A   Clear
10:53 AM 63.0 °F 41.0 °F 45% 29.93 in 10.0 mi NNW 23.0 mph - N/A   Clear
11:53 AM 66.9 °F 42.1 °F 40% 29.92 in 10.0 mi North 18.4 mph 29.9 mph N/A   Clear
12:53 PM 71.1 °F 41.0 °F 34% 29.91 in 10.0 mi North 21.9 mph 26.5 mph N/A   Clear
1:53 PM 75.0 °F 42.1 °F 31% 29.89 in 10.0 mi North 18.4 mph - N/A   Clear
2:53 PM 75.0 °F 43.0 °F 32% 29.88 in 10.0 mi North 18.4 mph 26.5 mph N/A   Clear
3:53 PM 75.9 °F 42.1 °F 30% 29.86 in 10.0 mi North 16.1 mph 20.7 mph N/A   Clear
4:53 PM 73.9 °F 42.1 °F 32% 29.87 in 10.0 mi NNE 16.1 mph - N/A   Clear
5:53 PM 75.0 °F 44.1 °F 33% 29.89 in 10.0 mi NNE 16.1 mph - N/A   Clear
6:53 PM 73.0 °F 43.0 °F 34% 29.91 in 10.0 mi NNE 15.0 mph - N/A   Clear
7:53 PM 69.1 °F 45.0 °F 42% 29.95 in 10.0 mi NNE 15.0 mph - N/A   Clear
8:53 PM 66.0 °F 46.9 °F 50% 29.97 in 10.0 mi NNE 10.4 mph - N/A   Clear
9:53 PM 64.9 °F 48.0 °F 54% 30.01 in 10.0 mi NNE 16.1 mph - N/A   Clear
10:53 PM 64.0 °F 48.9 °F 58% 30.02 in 10.0 mi NNE 17.3 mph 24.2 mph N/A   Clear
11:53 PM 62.1 °F 46.0 °F 56% 30.05 in 10.0 mi North 17.3 mph - N/A   Scattered Clouds